Alamo Lake Weather Center

Moon Phase Calendar



Alamo Lake Water Level
Online Cameras

 


      

Current Conditions in Bagdad
9/26/2021 8:54:37 AM

76°F
Feels Like 76
Clouds
Humidity
45%
Pressure
29.94"
Wind
5 mph (SE)
Dew Point
53°F
UV Index
1/10 (Low)
Visibility
6 mi

Hourly Forecast

Date & Time Sun, Sep 26
8:00 AM
Sun, Sep 26
9:00 AM
Sun, Sep 26
10:00 AM
Sun, Sep 26
11:00 AM
Sun, Sep 26
12:00 PM
Sun, Sep 26
1:00 PM
Sun, Sep 26
2:00 PM
Sun, Sep 26
3:00 PM
Sun, Sep 26
4:00 PM
Sun, Sep 26
5:00 PM
Sun, Sep 26
6:00 PM
Sun, Sep 26
7:00 PM
Sun, Sep 26
8:00 PM
Sun, Sep 26
9:00 PM
Sun, Sep 26
10:00 PM
Sun, Sep 26
11:00 PM
Mon, Sep 27
12:00 AM
Mon, Sep 27
1:00 AM
Mon, Sep 27
2:00 AM
Mon, Sep 27
3:00 AM
Mon, Sep 27
4:00 AM
Mon, Sep 27
5:00 AM
Mon, Sep 27
6:00 AM
Mon, Sep 27
7:00 AM
Mon, Sep 27
8:00 AM
Mon, Sep 27
9:00 AM
Mon, Sep 27
10:00 AM
Mon, Sep 27
11:00 AM
Mon, Sep 27
12:00 PM
Mon, Sep 27
1:00 PM
Mon, Sep 27
2:00 PM
Mon, Sep 27
3:00 PM
Mon, Sep 27
4:00 PM
Mon, Sep 27
5:00 PM
Mon, Sep 27
6:00 PM
Mon, Sep 27
7:00 PM
Mon, Sep 27
8:00 PM
Mon, Sep 27
9:00 PM
Mon, Sep 27
10:00 PM
Mon, Sep 27
11:00 PM
Tue, Sep 28
12:00 AM
Tue, Sep 28
1:00 AM
Tue, Sep 28
2:00 AM
Tue, Sep 28
3:00 AM
Tue, Sep 28
4:00 AM
Tue, Sep 28
5:00 AM
Tue, Sep 28
6:00 AM
Tue, Sep 28
7:00 AM
Condition
Rain

Clouds

Clouds

Clouds

Clouds

Clouds

Clouds

Clouds

Rain

Rain

Rain

Clouds

Rain

Rain

Clouds

Clouds

Rain

Clouds

Rain

Rain

Clouds

Clouds

Clear

Clouds

Clouds

Clouds

Clouds

Clouds

Clouds

Clear

Clear

Clouds

Clouds

Clouds

Clear

Clear

Clear

Clear

Clear

Clear

Clear

Clear

Clear

Clear

Clear

Clear

Clear

Clear
Temperature 77°F76°F78°F80°F82°F84°F86°F86°F82°F76°F75°F74°F73°F73°F73°F74°F75°F75°F74°F74°F74°F74°F74°F74°F76°F79°F81°F83°F85°F87°F88°F89°F89°F89°F88°F87°F86°F85°F84°F84°F83°F82°F81°F80°F79°F78°F78°F78°F
Feels Like 76°F76°F77°F80°F81°F83°F85°F85°F83°F76°F75°F74°F73°F73°F73°F74°F75°F75°F74°F74°F74°F74°F73°F74°F76°F78°F81°F82°F84°F85°F86°F87°F87°F87°F86°F86°F85°F84°F84°F83°F82°F82°F81°F80°F79°F78°F77°F78°F
Cloudiness 100%100%100%100%100%100%100%100%100%100%99%91%89%92%87%87%99%99%73%67%66%63%9%12%13%13%14%14%11%9%9%11%16%15%6%4%6%5%5%5%5%4%3%3%3%3%0%0%
Visibility 6 mi6 mi6 mi6 mi6 mi6 mi6 mi6 mi6 mi6 mi6 mi6 mi6 mi6 mi6 mi6 mi6 mi6 mi6 mi6 mi6 mi6 mi6 mi6 mi6 mi6 mi6 mi6 mi6 mi6 mi6 mi6 mi6 mi6 mi6 mi6 mi6 mi6 mi6 mi6 mi6 mi6 mi6 mi6 mi6 mi6 mi6 mi6 mi
Precipitation 40%40%40%42%13%18%30%41%49%55%47%70%86%82%78%78%28%15%38%35%15%8%0%0%0%0%0%0%7%3%3%3%3%3%0%0%0%0%0%0%6%0%0%0%0%0%0%0%
Humidity 46%45%44%43%41%39%37%37%46%61%58%58%64%65%65%62%60%59%62%62%61%61%61%60%54%49%44%41%37%34%32%31%31%31%32%34%36%38%39%41%41%42%43%45%46%48%50%50%
Dew Point 55°F53°F54°F55°F56°F56°F55°F55°F57°F59°F58°F57°F58°F59°F59°F59°F58°F58°F58°F58°F58°F58°F58°F58°F57°F56°F56°F55°F55°F54°F54°F54°F54°F53°F53°F54°F55°F55°F56°F56°F56°F55°F55°F55°F55°F56°F56°F56°F
Pressure 29.94"29.94"29.94"29.94"29.91"29.91"29.88"29.88"29.88"29.91"29.91"29.94"29.94"29.94"29.94"29.91"29.91"29.91"29.91"29.91"29.91"29.91"29.91"29.94"29.94"29.94"29.94"29.91"29.91"29.88"29.85"29.83"29.8"29.8"29.8"29.8"29.8"29.83"29.83"29.83"29.83"29.8"29.8"29.8"29.8"29.8"29.8"29.83"
Wind Speed 4.4 mph5 mph4.3 mph4.8 mph5.3 mph5.8 mph4.7 mph1.8 mph9.5 mph14.7 mph15.2 mph14.1 mph11.2 mph8.6 mph7.2 mph6 mph3.3 mph5.1 mph5.4 mph4.8 mph4.4 mph4.3 mph4.7 mph4.2 mph4.4 mph4.8 mph4 mph3 mph4.2 mph5.7 mph7.1 mph8.5 mph9.1 mph8.9 mph7.9 mph4.5 mph4.4 mph4.8 mph5.7 mph5.1 mph5 mph4.5 mph3.3 mph2.2 mph1.4 mph1.8 mph3 mph4.1 mph
Wind
Direction
135°
SE
133°
SE
149°
SSE
174°
S
176°
S
181°
S
171°
S
169°
S
78°
ENE
93°
E
99°
E
87°
E
82°
E
79°
E
69°
ENE
76°
ENE
173°
S
76°
ENE
93°
E
96°
E
89°
E
95°
E
87°
E
80°
E
95°
E
110°
ESE
126°
SE
162°
SSE
213°
SSW
228°
SW
227°
SW
225°
SW
221°
SW
216°
SW
211°
SSW
176°
S
177°
S
153°
SSE
164°
SSE
166°
SSE
148°
SSE
140°
SE
162°
SSE
182°
S
145°
SE
110°
ESE
100°
E
96°
E

Daily Forecast

Date High Low Precip. Humidity
Today
Sep 26

Rain
86 °F
73 °F
86%
41%
Monday
Sep 27

Rain
89 °F
74 °F
38%
37%
Tuesday
Sep 28

Clear
91 °F
78 °F
0%
29%
Wednesday
Sep 29

Clouds
87 °F
76 °F
14%
41%
Thursday
Sep 30

Clear
91 °F
77 °F
21%
28%
Friday
Oct 1

Clear
90 °F
77 °F
0%
28%
Saturday
Oct 2

Clouds
94 °F
79 °F
0%
24%
Sunday
Oct 3

Clear
94 °F
80 °F
0%
24%
Monday
Oct 4

Clear
97 °F
82 °F
0%
22%
Tuesday
Oct 5

Clear
97 °F
82 °F
0%
19%
Wednesday
Oct 6

Clear
98 °F
83 °F
0%
17%
Thursday
Oct 7

Clouds
96 °F
80 °F
0%
15%
Friday
Oct 8

Clouds
95 °F
82 °F
12%
25%
Saturday
Oct 9

Clouds
94 °F
80 °F
0%
25%
Sunday
Oct 10

Clear
92 °F
78 °F
0%
25%
Monday
Oct 11

Clear
81 °F
69 °F
0%
18%

Temperature 8-14 Day Outlook



Precipitation 8-14 Day Outlook




Quick Links
Alamo Lake News
Alamo Lake Photos
Alamo Lake Videos




About Us
Contact Us
Site Map
Search Site
Advertise With Us
   
Alamo.LakesOnline.com
THE ALAMO LAKE WEBSITE

Copyright 2021, Lakes Online
Privacy    |    Legal